When you browse on this site, cookies collect data to enhance your experience and personalize the content and advertising you see.
Visit our Privacy Policy to learn more. By continuing to use the site, you agree to this use of cookies and data.
EN

Hourly Weather Vidrodzhenivs'ke

Today, 8 August, Saturday

Time Temperature Precipitation Wind Pressure Humidity
00:00 +20°C° 0 mm 4 mps 746 mmHg 80%
01:00 +19°C° 0 mm 4 mps 746 mmHg 80%
02:00 +18°C° 0 mm 4 mps 746 mmHg 79%
03:00 +18°C° 0 mm 4 mps 746 mmHg 80%
04:00 +17°C° 0 mm 4 mps 746 mmHg 80%
05:00 +17°C° 0 mm 4 mps 746 mmHg 80%
06:00 +18°C° 0 mm 4 mps 746 mmHg 75%
07:00 +20°C° 0 mm 4 mps 746 mmHg 69%
08:00 +22°C° 0 mm 5 mps 746 mmHg 64%
09:00 +23°C° 0 mm 5 mps 746 mmHg 58%
10:00 +25°C° 0 mm 5 mps 746 mmHg 53%
11:00 +27°C° 0 mm 5 mps 746 mmHg 47%
12:00 +27°C° 0 mm 5 mps 746 mmHg 47%
13:00 +27°C° 0 mm 5 mps 745 mmHg 47%
14:00 +27°C° 0 mm 5 mps 745 mmHg 47%
15:00 +27°C° 0 mm 5 mps 745 mmHg 48%
16:00 +26°C° 0 mm 5 mps 744 mmHg 50%
17:00 +26°C° 0 mm 5 mps 744 mmHg 51%
18:00 +23°C° 0 mm 4 mps 744 mmHg 58%
19:00 +21°C° 0 mm 4 mps 744 mmHg 64%
20:00 +20°C° 0 mm 3 mps 744 mmHg 70%
21:00 +19°C° 0 mm 3 mps 744 mmHg 73%
22:00 +18°C° 0 mm 3 mps 744 mmHg 76%
23:00 +18°C° 0 mm 3 mps 744 mmHg 79%

Tomorrow, 9 August, Sunday

Time Temperature Precipitation Wind Pressure Humidity
00:00 +17°C° 0 mm 3 mps 744 mmHg 81%
01:00 +17°C° 0 mm 3 mps 744 mmHg 83%
02:00 +16°C° 0 mm 3 mps 744 mmHg 85%
03:00 +16°C° 0 mm 3 mps 743 mmHg 85%
04:00 +16°C° 0 mm 3 mps 743 mmHg 85%
05:00 +16°C° 0 mm 3 mps 743 mmHg 85%
06:00 +18°C° 0 mm 3 mps 743 mmHg 78%
07:00 +20°C° 0 mm 3 mps 744 mmHg 70%
08:00 +22°C° 0 mm 3 mps 744 mmHg 62%
09:00 +23°C° 0 mm 4 mps 744 mmHg 57%
10:00 +25°C° 0 mm 4 mps 743 mmHg 52%
11:00 +27°C° 0 mm 4 mps 743 mmHg 47%
12:00 +27°C° 0 mm 4 mps 743 mmHg 47%
13:00 +28°C° 0 mm 4 mps 743 mmHg 46%
14:00 +28°C° 0 mm 3 mps 743 mmHg 45%
15:00 +27°C° 0.1 mm 3 mps 742 mmHg 50%
16:00 +26°C° 0.1 mm 3 mps 742 mmHg 55%
17:00 +26°C° 0.1 mm 3 mps 742 mmHg 60%
18:00 +24°C° 0 mm 3 mps 742 mmHg 64%
19:00 +21°C° 0 mm 2 mps 742 mmHg 68%
20:00 +20°C° 0 mm 2 mps 742 mmHg 72%
21:00 +19°C° 0 mm 2 mps 742 mmHg 74%
22:00 +19°C° 0 mm 2 mps 742 mmHg 75%
23:00 +18°C° 0 mm 2 mps 742 mmHg 77%

Day after tomorrow, 10 August, Monday

Time Temperature Precipitation Wind Pressure Humidity
00:00 +18°C° 0 mm 2 mps 742 mmHg 79%
01:00 +17°C° 0 mm 2 mps 742 mmHg 80%
02:00 +17°C° 0 mm 2 mps 742 mmHg 82%
03:00 +17°C° 0 mm 2 mps 742 mmHg 82%
04:00 +18°C° 0 mm 1 mps 742 mmHg 82%
05:00 +18°C° 0 mm 1 mps 742 mmHg 83%
06:00 +20°C° 0 mm 1 mps 742 mmHg 76%
07:00 +20°C° 0 mm 2 mps 742 mmHg 69%
08:00 +23°C° 0 mm 2 mps 742 mmHg 63%
09:00 +25°C° 0 mm 2 mps 742 mmHg 58%
10:00 +26°C° 0 mm 2 mps 742 mmHg 54%
11:00 +27°C° 0 mm 2 mps 742 mmHg 49%
12:00 +27°C° 0 mm 2 mps 742 mmHg 48%
13:00 +28°C° 0 mm 2 mps 742 mmHg 46%
14:00 +28°C° 0 mm 2 mps 741 mmHg 44%
15:00 +28°C° 0 mm 2 mps 741 mmHg 46%
16:00 +28°C° 0 mm 2 mps 741 mmHg 48%
17:00 +27°C° 0 mm 2 mps 741 mmHg 50%
18:00 +26°C° 0 mm 2 mps 741 mmHg 57%
19:00 +24°C° 0 mm 2 mps 741 mmHg 64%
20:00 +21°C° 0 mm 2 mps 741 mmHg 71%
21:00 +20°C° 0 mm 2 mps 741 mmHg 74%
22:00 +21°C° 0 mm 1 mps 741 mmHg 76%
23:00 +20°C° 0 mm 1 mps 741 mmHg 79%

11 August, Tuesday

Time Temperature Precipitation Wind Pressure Humidity
00:00 +20°C° 0 mm 1 mps 741 mmHg 81%
01:00 +19°C° 0 mm 1 mps 741 mmHg 83%
02:00 +19°C° 0 mm 1 mps 741 mmHg 85%
03:00 +19°C° 0 mm 1 mps 741 mmHg 86%
04:00 +19°C° 0 mm 1 mps 741 mmHg 87%
05:00 +18°C° 0 mm 1 mps 741 mmHg 88%
06:00 +20°C° 0 mm 1 mps 741 mmHg 82%
07:00 +22°C° 0 mm 1 mps 741 mmHg 75%
08:00 +24°C° 0 mm 1 mps 741 mmHg 68%
09:00 +25°C° 0.2 mm 1 mps 741 mmHg 63%
10:00 +26°C° 0.2 mm 1 mps 741 mmHg 59%
11:00 +27°C° 0.2 mm 1 mps 741 mmHg 54%
12:00 +27°C° 1.1 mm 1 mps 741 mmHg 54%
13:00 +27°C° 1.1 mm 1 mps 741 mmHg 54%
14:00 +27°C° 1.1 mm 1 mps 740 mmHg 54%
15:00 +27°C° 0.4 mm 1 mps 740 mmHg 55%
16:00 +27°C° 0.4 mm 1 mps 740 mmHg 56%
17:00 +26°C° 0.4 mm 1 mps 740 mmHg 58%
18:00 +25°C° 0.1 mm 1 mps 740 mmHg 63%
19:00 +23°C° 0.1 mm 1 mps 740 mmHg 68%
20:00 +22°C° 0.1 mm 1 mps 740 mmHg 73%
21:00 +21°C° 0 mm 1 mps 740 mmHg 75%
22:00 +21°C° 0 mm 1 mps 740 mmHg 77%
23:00 +20°C° 0 mm 1 mps 740 mmHg 78%

12 August, Wednesday

Time Temperature Precipitation Wind Pressure Humidity
00:00 +20°C° 0.2 mm 1 mps 740 mmHg 80%
01:00 +19°C° 0.2 mm 1 mps 739 mmHg 81%
02:00 +19°C° 0.2 mm 1 mps 739 mmHg 83%
03:00 +19°C° 0.2 mm 1 mps 739 mmHg 84%
04:00 +18°C° 0.2 mm 2 mps 739 mmHg 84%
05:00 +18°C° 0.2 mm 2 mps 739 mmHg 85%
06:00 +19°C° 0.2 mm 2 mps 739 mmHg 84%
07:00 +19°C° 0.2 mm 2 mps 739 mmHg 83%
08:00 +20°C° 0.2 mm 2 mps 739 mmHg 83%
09:00 +21°C° 0.3 mm 3 mps 739 mmHg 79%
10:00 +22°C° 0.3 mm 3 mps 739 mmHg 75%
11:00 +22°C° 0.3 mm 4 mps 739 mmHg 71%
12:00 +23°C° 0.6 mm 4 mps 739 mmHg 69%
13:00 +23°C° 0.6 mm 4 mps 739 mmHg 67%
14:00 +23°C° 0.6 mm 4 mps 739 mmHg 65%
15:00 +23°C° 0.2 mm 5 mps 739 mmHg 65%
16:00 +22°C° 0.2 mm 5 mps 739 mmHg 65%
17:00 +22°C° 0.2 mm 5 mps 739 mmHg 65%
18:00 +20°C° 0 mm 5 mps 739 mmHg 68%
19:00 +19°C° 0 mm 5 mps 739 mmHg 71%
20:00 +16°C° 0 mm 5 mps 740 mmHg 73%
21:00 +15°C° 0 mm 5 mps 740 mmHg 76%
22:00 +15°C° 0 mm 5 mps 740 mmHg 78%
23:00 +14°C° 0 mm 5 mps 740 mmHg 80%

13 August, Thursday

Time Temperature Precipitation Wind Pressure Humidity
00:00 +13°C° 0 mm 5 mps 740 mmHg 81%
01:00 +12°C° 0 mm 5 mps 740 mmHg 82%
02:00 +12°C° 0 mm 4 mps 740 mmHg 83%
03:00 +11°C° 0 mm 4 mps 740 mmHg 85%
04:00 +11°C° 0 mm 4 mps 740 mmHg 87%
05:00 +10°C° 0 mm 4 mps 740 mmHg 89%
06:00 +10°C° 0 mm 5 mps 740 mmHg 85%
07:00 +13°C° 0 mm 5 mps 741 mmHg 81%
08:00 +14°C° 0 mm 6 mps 741 mmHg 77%
09:00 +15°C° 0 mm 6 mps 741 mmHg 74%
10:00 +16°C° 0 mm 6 mps 741 mmHg 70%
11:00 +17°C° 0 mm 6 mps 741 mmHg 66%
12:00 +17°C° 0.2 mm 6 mps 741 mmHg 63%
13:00 +19°C° 0.2 mm 6 mps 741 mmHg 59%
14:00 +20°C° 0.2 mm 6 mps 741 mmHg 56%
15:00 +20°C° 0.1 mm 6 mps 741 mmHg 56%
16:00 +19°C° 0.1 mm 6 mps 742 mmHg 57%
17:00 +19°C° 0.1 mm 6 mps 742 mmHg 57%
18:00 +16°C° 0 mm 5 mps 742 mmHg 65%
19:00 +15°C° 0 mm 4 mps 742 mmHg 72%
20:00 +13°C° 0 mm 3 mps 742 mmHg 79%
21:00 +13°C° 0 mm 3 mps 742 mmHg 82%
22:00 +12°C° 0 mm 3 mps 743 mmHg 85%
23:00 +11°C° 0 mm 3 mps 743 mmHg 88%
Show more